Showing default

R2, 46913

Orbit data source: Space-Track

R2, 46913 is a payload satellite owned by NanoAvionics (LT) in LEO that was launched on Sat, 07 Nov 2020 UTC via a PSLV-DL launch vehicle from the Sirharikota (SRI). Payload-class satellites include a variety of spacecraft equipped with specific instruments for various scientific and technological missions. These include communications satellites like Starlink; space stations such as the ISS; scientific satellites like the Hubble; Earth observation satellites from companies like Planet Labs, Umbra, and HawkEye 360; GPS; miniature CubeSats for education and research; and military/defense satellites.

Loading next visibility...
Identifier
46913, 2020-081J
Orbit
LEO
Country
Flag of LTLT / LTU
Related business
Manufacturer
NanoAvionics US
Mission
Operational Commercial Technology
Bus & Motor
CUBESAT 6U, Unknown motor
Mass
6.8 kg wet, 6.8 kg dry
Launch date (UTC)
2020-11-07 (5 years ago)
Launch vehicle
PSLV-DL
Launch site
Sirharikota (SRI)
Object type
Payload
Rocket body
Debris
Shape & HBR
Box, Unknown HBR
Radar Cross Section
0.080 m², Small (<0.1 m²)

Expand to show TLE details & history
Last TLE update: 16 hours ago

TLE from 16 hours ago
0 R2
1 46913U 20081J   25307.85094203  .00010047  00000-0  44788-3 0  9998
2 46913  36.8998   5.2689 0008646 181.6772 178.3948 15.20868592277602
Epoch: 2025-11-03T20:25Z
TLE epoch observation values (Epoch: 2025-11-03T20:25:21.391Z)
Latitude
0.00001°
Longitude
15.5834°
Altitude
508.274 km
Speed
7.609 km/s
True Right ascension
00h 21m 04s
True Declination
0° 00' 00"
Sunlit
Object was in full shadow at epoch
Visualization orbit readout
Latitude
Unknown
Longitude
Unknown
Altitude
Unknown
Speed
Unknown
Apparent Right ascension
Unknown
Apparent Declination
Unknown
Sunlit
N/A
Visualization observer readout
Local Sidereal Time
08:18:02
Azimuth
Unknown
Elevation
Unknown
Doppler factor
Unknown
Orbital elements
Apogee altitude
512.116 km
Perigee altitude
500.212 km
Semi-major axis
6,884.301 km
Eccentricity
0.00086
Inclination
36.8998°
RAAN
5.2689°
Arg. of periapsis
181.6772°
True anomaly
178.39757°
Mean anomaly
178.3948°
Eccentric anomaly
178.39619°
Mean motion
3.79974 °/min
Orbital period
94.74 mins
BSTAR
0.00044788
Loading maneuver chart data...
Computing Atmospheric mass density...
Loading historical data...
Loading historical data...
Loading historical data...
Loading historical data...
Loading historical data...
Loading historical data...
Loading historical data...

Documentation

Showing up to 5 results
|